Date String (YYYY-MM-DD hh:mm:ss) UTC,Instrument flags,absolute air pressure of the measurement (hPa),sample flow rate (lpm),inlet stack bypass flow (lpm),air temperature of the measurement (°C),ambient temperature measured by the external sensor (°C),aerosol sample conditioner tube jacket temperature (°C),OPC LED temperature (°C),internal box temperature (°C),relative humidity of the measurement (%),span deviation,mass concentration of particles derived from Lorenz-Mie calculation of OPC scattering (μg/m³),mass concentration of particles derived from Lorenz-Mie calculation of OPC scattering (μg/m³),mass concentration of particles derived from Lorenz-Mie calculation of OPC scattering (μg/m³)
DateTimeUTC,F1_M11,P_M11,Q1_M11,Q2_M11,T1_M11,T2_M11,T3_M11,T4_M11,T5_M11,U1_M11,ZSPAN_M11,X0_M11,X2_M11,X1_M11
2024-02-03 13:00:00,SystemResetWarning,0813.3,5.00,000.00,023.1,022.4,000.0,031.5,024.9,25.7,0000.0,0008.19,0005.69,0005.52
2024-02-03 13:01:00,SystemResetWarning,0813.3,5.01,000.00,023.1,022.4,000.0,031.5,024.9,25.7,0000.0,0008.18,0005.69,0005.52
2024-02-03 13:02:00,SystemResetWarning,0813.3,5.01,000.00,023.1,022.4,000.0,031.5,024.9,25.7,0000.0,0008.18,0005.69,0005.52
2024-02-03 13:03:00,SystemResetWarning,0813.3,4.98,000.00,023.1,022.4,000.0,031.5,024.9,25.7,0000.3,0008.22,0005.70,0005.52
2024-02-03 13:04:00,SystemResetWarning,0813.4,5.00,000.00,023.1,022.4,000.0,031.5,024.9,25.7,0000.0,0008.15,0005.67,0005.50
2024-02-03 13:05:00,SystemResetWarning,0813.3,5.01,000.00,023.1,022.4,000.0,031.5,024.9,25.8,0000.0,0008.24,0005.63,0005.47
2024-02-03 13:06:00,SystemResetWarning,0813.3,5.01,000.00,023.1,022.4,000.0,031.5,024.9,25.8,0000.0,0008.17,0005.59,0005.44
2024-02-03 13:07:00,SystemResetWarning,0813.4,4.99,000.00,023.1,022.4,000.0,031.5,024.9,25.8,0000.0,0008.13,0005.53,0005.38
2024-02-03 13:08:00,SystemResetWarning,0813.3,4.99,000.00,023.1,022.4,000.0,031.5,024.9,25.8,0000.0,0008.04,0005.43,0005.29
2024-02-03 13:09:00,SystemResetWarning,0813.3,5.00,000.00,023.1,022.4,000.0,031.5,024.9,25.8,0000.0,0007.92,0005.32,0005.18
2024-02-03 13:10:00,SystemResetWarning,0813.3,5.00,000.00,023.1,022.4,000.0,031.5,024.9,25.8,0000.0,0007.77,0005.20,0005.07
2024-02-03 13:11:00,SystemResetWarning,0813.3,5.01,000.00,023.1,022.4,000.0,031.5,024.9,25.8,0000.0,0007.69,0005.12,0004.99
2024-02-03 13:12:00,SystemResetWarning,0813.3,5.00,000.00,023.1,022.4,000.0,031.5,024.9,25.9,0000.0,0007.56,0005.00,0004.88
2024-02-03 13:13:00,SystemResetWarning,0813.3,5.00,000.00,023.1,022.4,000.0,031.5,024.9,25.9,0000.0,0007.40,0004.86,0004.75
2024-02-03 13:14:00,SystemResetWarning,0813.4,5.00,000.00,023.1,022.4,000.0,031.5,024.9,25.9,0000.0,0007.17,0004.71,0004.62
2024-02-03 13:15:00,SystemResetWarning,0813.3,4.99,000.00,023.1,022.4,000.0,031.5,024.9,26.0,0000.0,0006.19,0004.60,0004.50
2024-02-03 13:16:00,SystemResetWarning,0813.3,5.00,000.00,023.1,022.4,000.0,031.5,024.9,26.4,0000.0,0005.36,0004.49,0004.40
2024-02-03 13:17:00,SystemResetWarning,0813.4,4.99,000.00,023.1,022.4,000.0,031.5,024.9,26.6,0000.0,0005.12,0004.36,0004.28
2024-02-03 13:18:00,SystemResetWarning,0813.3,5.00,000.00,023.1,022.3,000.0,031.5,024.9,26.2,0000.0,0004.84,0004.25,0004.18
2024-02-03 13:19:00,SystemResetWarning,0813.4,5.01,000.00,023.1,022.3,000.0,031.5,024.9,26.1,0000.0,0004.67,0004.17,0004.10
2024-02-03 13:20:00,SystemResetWarning,0813.4,5.00,000.00,023.1,022.3,000.0,031.5,024.9,26.1,0000.0,0004.61,0004.12,0004.05
2024-02-03 13:21:00,SystemResetWarning,0813.4,5.00,000.00,023.1,022.3,000.0,031.5,024.8,26.1,0000.0,0004.48,0004.07,0004.01
2024-02-03 13:22:00,SystemResetWarning,0813.4,5.01,000.00,023.1,022.3,000.0,031.5,024.9,26.1,0000.0,0004.45,0004.05,0003.98
2024-02-03 13:23:00,SystemResetWarning,0813.4,5.00,000.00,023.1,022.3,000.0,031.5,024.8,26.1,0000.0,0004.45,0004.04,0003.97
2024-02-03 13:24:00,SystemResetWarning,0813.4,5.00,000.00,023.1,022.3,000.0,031.5,024.8,26.1,0000.0,0004.43,0004.02,0003.96
2024-02-03 13:25:00,SystemResetWarning,0813.4,5.00,000.00,023.1,022.3,000.0,031.5,024.8,26.0,0000.0,0004.42,0004.02,0003.96
2024-02-03 13:26:00,SystemResetWarning,0813.5,5.00,000.00,023.1,022.3,000.0,031.5,024.8,26.0,0000.0,0004.42,0004.01,0003.95
2024-02-03 13:27:00,SystemResetWarning,0813.5,5.01,000.00,023.0,022.3,000.0,031.5,024.8,26.0,0000.0,0004.45,0004.01,0003.94
2024-02-03 13:28:00,SystemResetWarning,0813.5,5.00,000.00,023.0,022.3,000.0,031.5,024.8,26.0,0000.0,0004.42,0004.00,0003.94
2024-02-03 13:29:00,SystemResetWarning,0813.5,4.99,000.00,023.0,022.3,000.0,031.5,024.8,26.0,0000.0,0004.42,0003.99,0003.93
2024-02-03 13:30:00,SystemResetWarning,0813.4,5.00,000.00,023.0,022.3,000.0,031.5,024.8,26.0,0000.0,0004.45,0003.99,0003.92
2024-02-03 13:31:00,SystemResetWarning,0813.4,5.00,000.00,023.0,022.3,000.0,031.5,024.8,26.0,0000.0,0004.41,0003.97,0003.91
2024-02-03 13:32:00,SystemResetWarning,0813.5,5.00,000.00,023.0,022.3,000.0,031.5,024.8,26.0,0000.0,0004.42,0003.96,0003.90
2024-02-03 13:33:00,SystemResetWarning,0813.5,5.01,000.00,023.0,022.3,000.0,031.5,024.8,26.0,0000.0,0004.42,0003.94,0003.87
2024-02-03 13:34:00,SystemResetWarning,0813.5,5.01,000.00,023.0,022.3,000.0,031.5,024.8,26.0,0000.0,0004.38,0003.92,0003.86
2024-02-03 13:35:00,SystemResetWarning,0813.5,5.00,000.00,023.0,022.3,000.0,031.5,024.8,26.0,0000.0,0004.36,0003.91,0003.84
2024-02-03 13:36:00,SystemResetWarning,0813.5,5.00,000.00,023.0,022.3,000.0,031.5,024.8,26.0,0000.0,0004.44,0003.89,0003.83
2024-02-03 13:37:00,SystemResetWarning,0813.5,4.99,000.00,023.0,022.3,000.0,031.5,024.8,26.0,0000.0,0004.48,0003.89,0003.82
2024-02-03 13:38:00,SystemResetWarning,0813.5,5.00,000.00,023.0,022.3,000.0,031.5,024.8,26.0,0000.0,0004.54,0003.90,0003.81
2024-02-03 13:39:00,SystemResetWarning,0813.5,4.99,000.00,023.0,022.3,000.0,031.5,024.8,26.0,0000.0,0004.69,0003.92,0003.80
2024-02-03 13:40:00,SystemResetWarning,0813.5,5.01,000.00,023.0,022.3,000.0,031.5,024.8,26.0,0000.0,0004.71,0003.93,0003.81
2024-02-03 13:41:00,SystemResetWarning,0813.5,5.01,000.00,023.0,022.3,000.0,031.5,024.8,26.0,0000.0,0004.75,0003.93,0003.81
2024-02-03 13:42:00,SystemResetWarning,0813.5,4.99,000.00,023.0,022.3,000.0,031.4,024.8,25.9,0000.0,0004.95,0003.94,0003.79
2024-02-03 13:43:00,SystemResetWarning,0813.5,4.99,000.00,023.0,022.3,000.0,031.4,024.8,25.9,0000.0,0005.01,0003.92,0003.77
2024-02-03 13:44:00,SystemResetWarning,0813.5,5.00,000.00,023.0,022.2,000.0,031.5,024.8,25.9,0000.0,0005.10,0003.92,0003.77
2024-02-03 13:45:00,SystemResetWarning,0813.6,5.01,000.00,023.0,022.3,000.0,031.4,024.8,25.9,0000.0,0005.16,0003.91,0003.75
2024-02-03 13:46:00,SystemResetWarning,0813.6,5.00,000.00,023.0,022.2,000.0,031.4,024.8,25.9,0000.0,0005.23,0003.91,0003.75
2024-02-03 13:47:00,SystemResetWarning,0813.6,5.00,000.00,023.0,022.2,000.0,031.4,024.8,25.9,0000.0,0005.11,0003.88,0003.71
2024-02-03 13:48:00,SystemResetWarning,0813.6,5.00,000.00,023.0,022.2,000.0,031.4,024.8,25.9,0000.0,0005.08,0003.84,0003.67
2024-02-03 13:49:00,SystemResetWarning,0813.6,5.00,000.00,023.0,022.2,000.0,031.4,024.8,25.9,0000.0,0004.92,0003.78,0003.63
2024-02-03 13:50:00,SystemResetWarning,0813.7,5.00,000.00,023.0,022.2,000.0,031.4,024.8,25.8,0000.0,0004.73,0003.73,0003.61
2024-02-03 13:51:00,SystemResetWarning,0813.6,4.99,000.00,023.0,022.2,000.0,031.4,024.8,25.8,0000.0,0004.67,0003.68,0003.56
2024-02-03 13:52:00,SystemResetWarning,0813.7,5.00,000.00,023.0,022.2,000.0,031.4,024.8,25.8,0000.0,0004.58,0003.64,0003.52
2024-02-03 13:53:00,SystemResetWarning,0813.6,5.00,000.00,023.0,022.2,000.0,031.4,024.8,25.8,0000.0,0004.31,0003.58,0003.49
2024-02-03 13:54:00,SystemResetWarning,0813.7,5.00,000.00,023.0,022.2,000.0,031.4,024.7,25.8,0000.0,0004.15,0003.54,0003.47
2024-02-03 13:55:00,SystemResetWarning,0813.7,5.01,000.00,023.0,022.2,000.0,031.4,024.7,25.8,0000.0,0003.98,0003.50,0003.44
2024-02-03 13:56:00,SystemResetWarning,0813.7,5.00,000.00,023.0,022.2,000.0,031.4,024.8,25.8,0000.0,0003.84,0003.46,0003.40
2024-02-03 13:57:00,SystemResetWarning,0813.7,5.01,000.00,022.9,022.2,000.0,031.4,024.7,25.7,0000.0,0003.73,0003.40,0003.34
2024-02-03 13:58:00,SystemResetWarning,0813.7,4.99,000.00,022.9,022.2,000.0,031.4,024.7,25.6,0000.0,0003.70,0003.37,0003.31
2024-02-03 13:59:00,SystemResetWarning,0813.7,4.99,000.00,022.9,022.2,000.0,031.4,024.7,25.6,0000.0,0003.59,0003.32,0003.27
